Regional Weather Roundup
Issued by NWS

Home | Current Version | Previous Version | Graphics & Text | Print | Product List | Glossary On
Versions: 1 2 3 4 5 6 7 8 9 10 11 12 13 14 15 16 17 18 19 20 21 22 23 24 25 26 27 28 29 30 31 32 33 34 35 36 37 38 39 40 41 42 43 44 45 46 47 48 49 50
000
ASUS43 KLSX 260859
RWRMO

WEATHER SUMMARY FOR MISSOURI
NATIONAL WEATHER SERVICE SPRINGFIELD MO
400 AM CDT SUN APR 26 2015

NOTE: "FAIR" INDICATES FEW OR NO CLOUDS BELOW 12,000 FEET WITH NO
       SIGNIFICANT WEATHER AND/OR OBSTRUCTIONS TO VISIBILITY.
       CURRENT SKY AND/OR WEATHER CONDITIONS ARE NOT AVAILABLE FOR
       CHILLICOTHE AND FARMINGTON.

MOZ001>031-035>038-043-044-053-054-261000-
...NORTHERN AND WESTERN MISSOURI...

CITY           SKY/WX    TMP DP  RH WIND       PRES   REMARKS
KANSAS CTY INT DRIZZLE   48  46  93 NE12      29.86R
KANSAS C DTWN  CLOUDY    50  46  86 NE13      29.85R
LEE`S SUMMIT   CLOUDY    48  45  89 NE14G21   29.85R
ST JOSEPH      CLOUDY    48  44  86 E8        29.89R FOG
CHILLICOTHE      N/A     49  43  80 NE7       29.90R
KIRKSVILLE     CLOUDY    46  41  82 NE7       29.90R

$$
MOZ066>068-077>081-088>096-101>105-261000-
...SOUTHWEST MISSOURI...

CITY           SKY/WX    TMP DP  RH WIND       PRES   REMARKS
SPRINGFIELD    CLOUDY    53  51  93 N9        29.77R
JOPLIN         CLOUDY    53  49  86 NE10      29.78S

$$
MOZ032>034-039>042-045>050-055>058-069>072-261000-
...CENTRAL MISSOURI...

CITY           SKY/WX    TMP DP  RH WIND       PRES   REMARKS
COLUMBIA       CLOUDY    47  44  90 NE10      29.85R
JEFFERSON CITY CLOUDY    49  44  83 N6        29.85R
ROLLA          CLOUDY    46  46 100 N12       29.80R FOG
OSAGE BEACH    CLOUDY    48  45  87 NE10      29.82R

$$
MOZ051-052-059>065-261000-
...EAST CENTRAL MISSOURI...

CITY           SKY/WX    TMP DP  RH WIND       PRES   REMARKS
ST LOUIS INTL  CLOUDY    48  43  81 NE10      29.83R
SPIRIT OF STL  CLOUDY    48  43  82 NE10      29.83R
ST CHARLES     CLOUDY    47  43  86 N9        29.83R

$$
MOZ072>076-082>087-097>100-106>115-261000-
...SOUTH CENTRAL AND SOUTHEAST MISSOURI...

CITY           SKY/WX    TMP DP  RH WIND       PRES   REMARKS
CAPE GIRARDEAU CLOUDY    52  51  97 N10       29.75R
FARMINGTON     CLOUDY    46  45  93 N8        29.82R
POPLAR BLUFF   CLOUDY    57  51  80 N15       29.72R
WEST PLAINS    CLOUDY    54  51  90 N13       29.75R

$$


USA.gov is the U.S. government's official web portal to all federal, state and local government web resources and services.